Regional Weather Roundup
Issued by NWS

Home | Current Version | Previous Version | Text Only | Print | Product List | Glossary Off
Versions: 1 2 3 4 5 6 7 8 9 10 11 12 13 14 15 16 17 18 19 20 21 22 23 24 25 26 27 28 29 30 31 32 33 34 35 36 37 38 39 40 41 42 43 44 45 46 47 48 49 50

000
ASUS43 KOAX 020602
RWRNE

WEATHER ROUNDUP FOR NEBRASKA
NATIONAL WEATHER SERVICE OMAHA NE
100 AM CDT MON MAY 02 2016

NOTES: SATELLITE DATA IS BEING USED TO AUGMENT CLOUD COVER ABOVE
       12000 FEET.
       "FAIR" INDICATES FEW OR NO CLOUDS BELOW 12,000 FEET WITH NO
       SIGNIFICANT WEATHER AND/OR OBSTRUCTIONS TO VISIBILITY.

  * THESE STATIONS DO NOT REPORT WEATHER SUCH AS RAIN...SNOW OR FOG.

NEZ001>004-019>022-054>056-020700-
NEBRASKA PANHANDLE

CITY           SKY/WX    TMP DP  RH WIND       PRES   REMARKS
SCOTTSBLUFF    CLEAR     35  30  82 NW8       30.27S WCI  29
6HR MIN TEMP:  35; 6HR MAX TEMP:  54;

ALLIANCE       CLEAR     26  25  96 SW6       30.24F WCI  19
6HR MIN TEMP:  26; 6HR MAX TEMP:  45;

CHADRON        CLEAR     33  30  88 W7        30.25F WCI  27
6HR MIN TEMP:  32; 6HR MAX TEMP:  56;

SIDNEY         PTCLDY    32  27  81 W8        30.26F WCI  25
6HR MIN TEMP:  30; 6HR MAX TEMP:  46;

$$

NEZ057>060-069>072-079>082-020700-
SOUTHWEST NEBRASKA

CITY           SKY/WX    TMP DP  RH WIND       PRES   REMARKS
NORTH PLATTE   CLEAR     35  32  88 W7        30.24S WCI  29
6HR MIN TEMP:  33; 6HR MAX TEMP:  54;

IMPERIAL       CLEAR     38  30  73 NW10      30.26R WCI  31
6HR MIN TEMP:  38; 6HR MAX TEMP:  49;

MCCOOK         CLOUDY    39  34  82 N10       30.24R WCI  32
6HR MIN TEMP:  36; 6HR MAX TEMP:  52;

$$

NEZ005>010-023>029-035>040-094-020700-
NORTH CENTRAL NEBRASKA

CITY           SKY/WX    TMP DP  RH WIND       PRES   REMARKS
VALENTINE      CLEAR     32  29  88 W7        30.23F WCI  26
6HR MIN TEMP:  32; 6HR MAX TEMP:  55;

AINSWORTH      CLEAR     37  32  81 W6        30.22F WCI  33
BROKEN BOW     CLEAR     34  32  92 CALM      30.22S
6HR MIN TEMP:  34; 6HR MAX TEMP:  54;

ORD            CLEAR     37  34  89 NW5       30.20S WCI  33
6HR MIN TEMP:  36; 6HR MAX TEMP:  53;

$$

NEZ041-046>049-061>064-073>077-083>087-020700-
SOUTH CENTRAL NEBRASKA

CITY           SKY/WX    TMP DP  RH WIND       PRES   REMARKS
GRAND ISLAND   CLOUDY    46  42  86 NW6       30.21R
6HR MIN TEMP:  45; 6HR MAX TEMP:  48;

AURORA         CLOUDY    46  44  94 W5        30.20S
HASTINGS       CLOUDY    45  41  86 NW5       30.21R
6HR MIN TEMP:  45; 6HR MAX TEMP:  48;

KEARNEY *      CLOUDY    41  37  87 W3        30.22S
YORK           CLOUDY    46  45  93 NW6       30.20S
$$

NEZ011>018-030>034-042>045-020700-
NORTHEAST NEBRASKA

CITY           SKY/WX    TMP DP  RH WIND       PRES   REMARKS
NORFOLK        CLEAR     40  38  93 W3        30.18S
6HR MIN TEMP:  38; 6HR MAX TEMP:  51;

ALBION         CLEAR     37  34  90 NW5       30.20R WCI  33
BLAIR          CLOUDY    48  44  85 CALM      30.16R
COLUMBUS *     CLEAR     43  34  70 W6        30.19F
FREMONT        CLOUDY    46  44  90 CALM      30.17S
TEKAMAH        CLOUDY    48  43  82 NW7       30.16R
6HR MIN TEMP:  48; 6HR MAX TEMP:  52;

$$

NEZ050>053-065>068-078-088>093-020700-
SOUTHEAST NEBRASKA

CITY           SKY/WX    TMP DP  RH WIND       PRES   REMARKS
LINCOLN        CLOUDY    49  43  80 NW3       30.19S
6HR MIN TEMP:  49; 6HR MAX TEMP:  50;

OMAHA EPPLEY   CLOUDY    50  45  83 CALM      30.16R
6HR MIN TEMP:  48; 6HR MAX TEMP:  50;

FALLS CITY     CLOUDY    47  44  90 NW5       30.16S
6HR MIN TEMP:  47; 6HR MAX TEMP:  50;

$$

NEZ044-045-051>053-067-020700-
OMAHA AREA

CITY           SKY/WX    TMP DP  RH WIND       PRES   REMARKS
OMAHA EPPLEY   CLOUDY    50  45  83 CALM      30.16R
6HR MIN TEMP:  48; 6HR MAX TEMP:  50;

BLAIR          CLOUDY    48  44  85 CALM      30.16R
FREMONT        CLOUDY    46  44  90 CALM      30.17S
OFFUTT AFB     CLOUDY    48  47  98 W6        30.15S
$$




USA.gov is the U.S. government's official web portal to all federal, state and local government web resources and services.